Regional Weather Roundup
Issued by NWS Pendleton, OR

Home | Current Version | Previous Version | Text Only | Print | Product List | Glossary On
Versions: 1 2 3 4 5 6 7 8 9 10 11 12 13 14 15 16 17 18 19 20 21 22 23 24 25 26 27 28 29 30 31 32 33 34 35 36 37 38 39 40 41 42 43 44 45 46 47 48 49 50
000
ASUS46 KPDT 041025
RWRPDT
PENDLETON REGIONAL WEATHER ROUNDUP
NATIONAL WEATHER SERVICE PENDLETON OREGON
300 AM PDT MON MAY 4 2015

NOTE: FAIR INDICATES FEW OR NO CLOUDS BELOW 12,000 FEET WITH NO
SIGNIFICANT WEATHER AND/OR OBSTRUCTIONS TO VISIBILITY.

# INDICATES UNOFFICIAL STATION AND DATA

WAZ520-041110-
EAST SLOPES OF WASHINGTON CASCADES

CITY            SKY/WX      TMP DP  RH  WIND    PRES   REMARKS
#BULLFROG 2SW   N/A         40  38  92  S1      27.49F
#BUMPING DAM    N/A         40  N/A N/A W2      N/A
#CLE ELUM HS    N/A         40  36  85  CALM    29.84S
#CLE ELUM LAKE  N/A         48  36  63  E1      29.80F
#CLIFFDEL 2NW   N/A         39  36  89  NW2     N/A
#GLENWOOD       N/A         34  32  92  CALM    29.86S
#MANASTASH CYN  N/A         41  29  62  CALM    29.87S
#NELSON         N/A         39  36  89  CALM    29.88R
#NELSON 3SW     N/A         41  35  79  CALM    30.05S
#NILE           N/A         39  35  85  CALM    29.15R
#RONALD 2NW     N/A         46  32  58  CALM    29.77S
#SNOWDEN        N/A         41  28  59  CALM    N/A
#TEANAWAY 4NE   N/A         38  35  89  E1      N/A
#TROUT LAKE 1NE N/A         43  37  79  CALM    29.85S
$$

WAZ521-041110-
SIMCOE HIGHLANDS

CITY            SKY/WX      TMP DP  RH  WIND    PRES   REMARKS
#BICKLETON HS   N/A         46  19  34  W1      N/A
#CENTERVILLE 4W N/A         48  30  49  N1      29.62S
#CENTERVILLE 1SWN/A         34  28  78  CALM    29.82F
#GOLDENDALE     N/A         44  30  58  E3      N/A
#GOLDENDALE 1NE N/A         40  21  46  N2      N/A
#GOLDENDALE 5WNWN/A         45  32  60  CALM    29.83R
#GOODNOE HILLS  N/A         52  30  43  NW3     N/A
#LYLE 6NE       N/A         51  38  61  CALM    29.80S
$$

WAZ026-041110-
KITTITAS VALLEY

CITY            SKY/WX      TMP DP  RH  WIND    PRES   REMARKS
ELLENSBURG AP   CLEAR       41  31  67  CALM    29.86S
YTC-OPS AREA    CLEAR       55  21  26  S10     29.85F
#ELLENSBURG CWU N/A         43  36  76  CALM    29.80R
#ELLENSBURG 3NE N/A         42  33  70  CALM    29.88S
#ELLENSBURG 1E  N/A         39  31  73  CALM    N/A
#KITTITAS 3S    N/A         35  33  92  CALM    29.85R
#THORP 6N       N/A         44  33  65  N3      29.86S
$$

WAZ027-041110-
YAKIMA VALLEY

CITY            SKY/WX      TMP DP  RH  WIND    PRES   REMARKS
SUNNYSIDE AP    CLEAR       41  34  76  CALM    29.84S
YAKIMA AIRPORT  CLEAR       42  33  70  W7      29.86R
#DONALD 2NE     N/A         55  21  26  NW2     28.69S
#GRANDVIEW      N/A         46  33  60  CALM    29.84S
#MABTON         N/A         46  28  49  CALM    29.83S
#NACHES 2SW     N/A         51  39  63  W7      29.86F
#OUTLOOK DOT    N/A         N/A N/A N/A CALM    N/A
#SELAH 8E       N/A         45  22  40  CALM    N/A
#TERRACE HTS    N/A         46  32  58  CALM    29.80S
#TOPPENISH      N/A         48  38  68  CALM    29.75S
#WAPATO 4NE     N/A         55  21  26  NW2     28.69S
#WEST VALLEY    N/A         46  34  63  CALM    29.82R
#W YAKIMA       N/A         51  37  59  W5      29.83R
#WHITE SWAN 5E  N/A         41  34  76  SW1     29.83S
$$

WAZ028-041110-
LOWER COLUMBIA BASIN...WASHINGTON

CITY            SKY/WX      TMP DP  RH  WIND    PRES   REMARKS
PASCO           CLEAR       46  37  71  E3      29.84S
RICHLAND AWOS   CLEAR       45  39  79  CALM    29.84S
#BASIN CITY 5SW N/A         44  36  73  E3      29.83S
#BENTON CITY    N/A         47  33  58  CALM    29.74S
#CONNELL 5N     N/A         42  31  65  NE1     29.82S
#CONNELL 5NW    N/A         45  32  60  E1      29.78F
#ELTOPIA 6NW    N/A         49  35  58  W2      28.80F
#KAHLOTUS       N/A         43  32  65  S10     29.83S
#KENNEWICK      N/A         40  38  92  S1      27.49F
#KENNEWICK 3S   N/A         52  32  46  CALM    29.82S
#PATERSON       N/A         48  37  65  NE1     29.82S
#PROSSER        N/A         54  26  34  CALM    29.82S
#SAGEMOOR 2W    N/A         45  36  70  CALM    29.67S
#TOUCHET 2S     N/A         36  32  85  CALM    29.82F
#WEST PASCO     N/A         48  35  60  CALM    29.80S
$$

WAZ029-041110-
FOOTHILLS OF THE BLUES...WASHINGTON

CITY            SKY/WX      TMP DP  RH  WIND    PRES   REMARKS
WALLA WALLA AP  CLEAR       53  33  46  E8      29.83F
#DAYTON SCHOOL  N/A         45  27  49  N5      29.88S
#LOWDEN 2SE     N/A         40  36  85  E1      29.80F
#PRESCOTT       N/A         43  36  76  CALM    29.81F
#SUDBURY        N/A         40  N/A N/A CALM    N/A
#WHITMAN COLLEGEN/A         53  36  52  E1      29.86F
#WAITSBURG 5S   N/A         49  34  56  NE5     29.91S
#WAITSBURG 8N   N/A         42  13  30  N3      29.71S
#WALLA WALLA 5E N/A         48  35  60  NE2     N/A
#WHITMAN MISSIONN/A         42  38  86  CALM    29.83F
$$

WAZ030-041110-
BLUE MOUNTAINS...WASHINGTON

CITY            SKY/WX      TMP DP  RH  WIND    PRES   REMARKS
#DIXIE 5SE      N/A         56  22  26  NE2     29.80F
$$

ORZ009-041-WAZ024-041110-
COLUMBIA RIVER GORGE

CITY            SKY/WX      TMP DP  RH  WIND    PRES   REMARKS
HOOD RIVER AP   CLEAR       45  39  79  CALM    29.88R
THE DALLES AP   CLEAR       47  36  65  SE5     29.85S
#ARLINGTON AIRPON/A         51  33  50  W5      25.05S
#ARLINGTON HS   N/A         47  29  49  SE7     29.75R
#CELILO DOT     N/A         52  35  52  CALM    N/A
#MOSIER 1S      N/A         50  33  52  CALM    29.85R
#MURDOCK        N/A         54  42  64  N10     29.86S

$$

ORZ510-041110-
NORTH CENTRAL OREGON

CITY            SKY/WX      TMP DP  RH  WIND    PRES   REMARKS
#CHENOWITH 1W   N/A         50  41  71  W14     N/A
#COW CYN RST AREN/A         55  22  27  W3      N/A
#DUFUR 9E       N/A         56  35  45  CALM    29.86S
#GRASS VALLEY 1SN/A         47  27  45  CALM    29.85R
#KENT DOT       N/A         47  21  35  SE3     N/A
#MAUPIN SCHOOL  N/A         48  29  47  CALM    29.89R
#MORO SCHOOL    N/A         66  38  36  CALM    30.18S
#SHANIKO 5WSW   N/A         56  24  29  CALM    N/A
#SHANIKO 4NW    N/A         53  20  27  SE1     29.89S
#TYGH VALLEY 2NEN/A         44  33  65  NE2     29.84S
#WAPANITIA AIRPON/A         45  37  73  W2      29.85R
#WASCO AIRPORT  N/A         53  28  38  CALM    N/A
#WASCO 5NE      N/A         47  34  60  W2      29.83S
$$

ORZ511-041110-
CENTRAL OREGON

CITY            SKY/WX      TMP DP  RH  WIND    PRES   REMARKS
BEND AIRPORT    CLEAR       43  27  53  S5      29.90F
MADRAS AIRPORT  CLEAR       37  28  70  SE7     29.90S
PRINEVILLE AP   CLEAR       41  25  53  CALM    29.90F
REDMOND AIRPORT CLEAR       39  26  59  S6      29.89F
#BEND 1SW       N/A         38  29  70  SW1     N/A
#BEND-AWBREY    N/A         47  29  49  E1      29.82F
#BEND-KIM LN    N/A         47  30  51  SW6     29.87F
#CULVER         N/A         42  33  70  CALM    29.84F
#LAKE BILLY CHINN/A         48  13  24  S2      29.98R
#POWELL BUTTE 3EN/A         40  25  55  S3      N/A
#POWELL BUTTE   N/A         44  25  47  SW2     29.54S
#PRINEVILLE 3N  N/A         37  30  75  E3      29.82S
#WARM SPRINGS   N/A         49  32  52  S1      29.85R

$$


ORZ509-041110-
EAST SLOPES OF OREGON CASCADES

CITY            SKY/WX      TMP DP  RH  WIND    PRES   REMARKS
#BLUE BOX PASS  N/A         48  -4  11  W3      N/A
#CAMP SHERMAN   N/A         31  26  81  CALM    29.85S
#LA PINE 4NW    N/A         29  23  78  CALM    29.91S
#SISTERS AIRPOR N/A         32  30  92  CALM    30.17S
#SISTERS ODOT   N/A         34  N/A N/A CALM    N/A
#SISTERS 1NW    N/A         35  27  72  E3      N/A
#SISTERS 3N     N/A         32  19  58  CALM    29.93S
#SUNRIVER       N/A         34  29  82  CALM    29.74F
#TUMALO 3W      N/A         54  26  34  SW2     29.70F
#WANOGA BUTTE D N/A         47  21  35  CALM    N/A

$$

ORZ044-041110-
LOWER COLUMBIA BASIN...OREGON

CITY            SKY/WX      TMP DP  RH  WIND    PRES   REMARKS
HERMISTON       CLEAR       39  33  79  SE5     29.83F
#BOARDMAN 8SW   N/A         48  32  54  CALM    29.83R
#ECHO 8SW       N/A         43  30  60  CALM    29.85S
#IONE SCHOOL    N/A         45  29  53  CALM    29.83S
#IRRIGON 4NW    N/A         46  38  73  E2      N/A
#UMATILLA SCHOOLN/A         42  40  93  S2      29.90R
#UMATILLA       N/A         74  33  22  CALM    29.76S
$$

ORZ507-041110-
NORTHERN FOOTHILLS OF THE BLUES

CITY            SKY/WX      TMP DP  RH  WIND    PRES   REMARKS
PENDLETON AIRPT CLEAR       43  34  70  E9      29.84F
#ADAMS 3WNW     N/A         33  30  89  CALM    29.84F
#ATHENA         N/A         41  34  76  CALM    29.86F
#CAYUSE         N/A         50  37  61  E7      29.82S
#HELIX SCHOOL   N/A         39  32  76  CALM    29.84S
#HELIX 3N       N/A         48  33  56  N5      29.83S
#HOLDMAN 6E     N/A         47  35  63  N1      29.63F
#M-F FERNDALE   N/A         48  33  56  CALM    29.82F
#M-F GROVE ELEM N/A         52  31  44  S1      29.82F
#M-FREEWATER 5SEN/A         53  33  46  E7      29.84F
#PENDLETON DNTN N/A         42  28  57  E1      29.87S
#PDT AQUATIC CTRN/A         43  25  49  CALM    29.86S
#PENDLETON 5NE  N/A         38  33  82  CALM    29.82S
#PDT SUNRIDGE   N/A         38  33  82  CALM    29.86F
#PENDLETON 7NW  N/A         44  34  68  E12     29.80F WCI 38
#TUTUILLA       N/A         36  32  85  CALM    29.85F
#UMAPINE 2E     N/A         44  37  76  CALM    29.80S
#WESTON SCHOOL  N/A         51  29  42  W1      29.85S

$$

ORZ508-041110-
SOUTHERN FOOTHILLS OF THE BLUES

CITY            SKY/WX      TMP DP  RH  WIND    PRES   REMARKS
#AJAX           N/A         54  18  24  CALM    29.81S
#CONDON SCHOOL  N/A         50  25  37  CALM    29.84F
#CONDON 5W      N/A         55  20  25  E1      29.85F
#FOSSIL SCHOOL  N/A         38  25  59  CALM    29.87S
#HEPPNER EOC    N/A         47  28  47  SE7     29.77S
#HEPPNER 4NE    N/A         51  28  41  S7      29.82F
#LEXINGTON 2SE  N/A         50  28  42  SE9     29.82F
#MIKKALO        N/A         49  22  34  E2      29.85S
#OLEX 4N        N/A         47  26  44  SW7     29.83S
#RUGGS 5NE      N/A         43  22  43  NW1     30.01F
#RUGGS 2SW      N/A         50  25  37  S9      29.84F

$$

ORZ502-503-041110-
BLUE MOUNTAINS

CITY            SKY/WX      TMP DP  RH  WIND    PRES   REMARKS
MEACHAM         CLEAR       29  26  88  CALM    29.90S
#BATTLE MTN DOT N/A         41  33  73  S5      N/A
#HEPPNER 15SE   N/A         39  24  54  CALM    29.79F
#LADD CYN SMT   N/A         35  28  75  CALM    N/A
#LONG CREEK HS  N/A         39  31  73  CALM    29.86F
#PIKES PEAK     N/A         57  24  28  S2      27.99S
#TOLLGATE       N/A         41  26  55  CALM    29.86F
#TROY SCHOOL    N/A         42  35  76  CALM    29.75R
#UKIAH          N/A         28  26  92  CALM    29.99R
#WESTON 4E      N/A         49  30  48  E5      29.77F
$$

ORZ505-041110-
JOHN DAY BASIN

CITY            SKY/WX      TMP DP  RH  WIND    PRES   REMARKS
JOHN DAY        CLOUDY      46  29  51  E9      29.92S
#DAYVILLE SCHOOLN/A         46  29  51  CALM    29.88S
#MITCHELL       N/A         44  31  60  E6      30.03S
#MONUMENT HS    N/A         41  29  62  CALM    29.91S
#MT. VERNON 5SE N/A         46  27  47  CALM    29.87S
#WINLOCK        N/A         43  25  49  CALM    29.98S
$$

ORZ506-041110-
OCHOCO AND JOHN DAY HIGHLANDS

CITY            SKY/WX      TMP DP  RH  WIND    PRES   REMARKS
#HORSE RIDGE DO N/A         31  19  61  SW1     N/A
#PAULINA SCHOOL N/A         56  28  34  CALM    29.88F
#PINE MTN OBS   N/A         50  26  39  N2      N/A
#SENECA         N/A         34  N/A N/A CALM    N/A
#SENECA 9NW     N/A         31  25  78  CALM    29.86S
$$

ORZ049-041110-
GRANDE RONDE VALLEY

CITY            SKY/WX      TMP DP  RH  WIND    PRES   REMARKS
LA GRANDE       CLEAR       39  25  57  CALM    29.89S
#COVE           N/A         40  33  76  N2      29.92R
#COVE SCHOOL    N/A         39  31  73  CALM    29.88S
#ELGIN 3N       N/A         34  26  72  CALM    29.89S
#ELGIN 1E       N/A         36  30  79  CALM    N/A
#IMBLER SCHOOL  N/A         52  34  50  NW5     29.87S
#ISLAND CITY 4N N/A         46  43  89  CALM    29.88R
#LADD CYN DOT   N/A         46  32  58  SE13    N/A    WCI 40
#LA GRANDE ELEM N/A         46  33  60  W1      29.93R
#UNION 1S       N/A         39  31  73  CALM    29.79R
$$

ORZ050-041110-
WALLOWA COUNTY

CITY            SKY/WX      TMP DP  RH  WIND    PRES   REMARKS
#ENTERPRISE HS  N/A         34  28  78  CALM    29.95R
#IMNAHA SCHOOL  N/A         45  34  65  S2      29.90S
#IMNAHA 10S     N/A         45  29  53  SW3     29.91R
#JOSEPH 3N      N/A         30  22  72  CALM    29.94F
#JOSEPH 3W      N/A         42  23  46  SW2     29.77F
#LOSTINE        N/A         33  27  78  CALM    29.68S
#MT HOWARD 8000 N/A         44  12  27  SW7     30.01S
#PROMISE 1S     N/A         39  30  70  CALM    29.94R
#SHEEP RDG 7000 N/A         46  13  26  CALM    29.88F
#WALLOWA SCHOOL N/A         33  27  78  CALM    30.82R



$$



USA.gov is the U.S. government's official web portal to all federal, state and local government web resources and services.